Location: Kershaw
(34.5481°N, 80.5823°W)
Time: 03:07:17
(UTC+00:00)

Altair - Pass Details

Date: 07 October 2022
Orbit: 1501 x 1682 km, 47.2° (Epoch: 01 December)

Event Time Altitude Azimuth Distance (km) Brightness Sun altitude
Rises 14:59:52 0° 305° (NW) 4,887 9.7 39.4°
Reaches altitude 10° 15:03:00 10° 306° (NW) 3,915 9.3 39.9°
Maximum altitude 15:13:09 81° 34° (NE) 1,700 8.5 41.2°
Drops below altitude 10° 15:23:20 10° 122° (ESE) 3,927 10.6 42.6°
Sets 15:26:29 0° 124° (ESE) 4,903 10.9 42.9°
